TimeMDT,TemperatureF,Dew PointF,Humidity,Sea Level PressureIn,VisibilityMPH,Wind Direction,Wind SpeedMPH,Gust SpeedMPH,PrecipitationIn,Events,Conditions,WindDirDegrees,DateUTC
12:53 AM,45.0,25.0,46,30.22,10.0,ESE,11.5,-,N/A,,Clear,110,2014-04-08 06:53:00
1:53 AM,42.1,26.1,53,30.23,10.0,SSE,6.9,-,N/A,,Clear,150,2014-04-08 07:53:00
2:53 AM,39.0,26.1,60,30.23,-9999.0,Calm,Calm,-,N/A,,Clear,0,2014-04-08 08:53:00
3:53 AM,37.9,26.1,62,30.24,-9999.0,SE,9.2,-,N/A,,Clear,130,2014-04-08 09:53:00
4:53 AM,39.9,26.1,58,30.23,10.0,ESE,13.8,-,N/A,,Clear,120,2014-04-08 10:53:00
5:53 AM,35.1,26.1,70,30.26,-9999.0,SE,12.7,-,N/A,,Clear,130,2014-04-08 11:53:00
6:53 AM,35.1,26.1,70,30.28,10.0,SE,9.2,-,N/A,,Clear,130,2014-04-08 12:53:00
7:53 AM,39.0,27.0,62,30.30,10.0,SE,9.2,-,N/A,,Clear,140,2014-04-08 13:53:00
8:53 AM,44.1,28.0,53,30.31,10.0,SSE,8.1,-,N/A,,Clear,150,2014-04-08 14:53:00
9:53 AM,50.0,27.0,41,30.31,10.0,SE,6.9,-,N/A,,Clear,140,2014-04-08 15:53:00
10:53 AM,54.0,25.0,33,30.30,10.0,ESE,4.6,-,N/A,,Clear,120,2014-04-08 16:53:00
11:53 AM,57.0,25.0,29,30.26,10.0,North,-9999.0,-,N/A,,Clear,0,2014-04-08 17:53:00
12:53 PM,62.1,26.1,25,30.23,10.0,West,5.8,-,N/A,,Clear,270,2014-04-08 18:53:00
1:53 PM,64.0,24.1,22,30.21,10.0,Variable,5.8,-,N/A,,Clear,0,2014-04-08 19:53:00
2:53 PM,64.9,24.1,21,30.19,10.0,Calm,Calm,-,N/A,,Clear,0,2014-04-08 20:53:00
3:53 PM,66.0,25.0,21,30.16,10.0,Calm,Calm,-,N/A,,Clear,0,2014-04-08 21:53:00
4:53 PM,66.9,25.0,21,30.13,10.0,North,-9999.0,-,N/A,,Clear,0,2014-04-08 22:53:00
5:53 PM,66.9,25.0,21,30.13,10.0,WNW,6.9,-,N/A,,Clear,300,2014-04-08 23:53:00
6:53 PM,66.0,24.1,20,30.12,10.0,North,5.8,-,N/A,,Clear,360,2014-04-09 00:53:00
7:53 PM,62.1,26.1,25,30.12,10.0,North,4.6,-,N/A,,Clear,350,2014-04-09 01:53:00
8:53 PM,57.0,27.0,32,30.13,10.0,Variable,3.5,-,N/A,,Clear,0,2014-04-09 02:53:00
9:53 PM,53.1,27.0,37,30.14,10.0,Calm,Calm,-,N/A,,Clear,0,2014-04-09 03:53:00
10:53 PM,50.0,27.0,41,30.13,10.0,East,5.8,-,N/A,,Clear,90,2014-04-09 04:53:00
11:53 PM,48.9,27.0,43,30.12,10.0,ESE,8.1,-,N/A,,Clear,110,2014-04-09 05:53:00